Погода в Хиве

Узбекистан     41°23′03″N   60°21′42″E
темп.,
°C
ветер,
м/с
пор.,
м/с
влажн.,
%
обл.,
%
осадки,
мм/ч
давл.,
гПа
погр.,
м
1 марта, пн
пн123:00+7ююв45400 0.0 101773
02:00+5ю44460 0.0 101647
05:00+4ю34520 0.0 101624
08:00+3ююз23570 0.0 101622
11:00+10юз23270 0.0 1018260
14:00+14з45210 0.0 1018840
17:00+14зсз55210 0.0 10171093
20:00+11з34270 0.0 102056
2 марта, вт
вт223:00+7ссв58580 0.0 1022192
02:00+4с47890 0.0 1023213
05:00+2ссв36926 0.0 1024177
08:00+3св358794 0.0 1026250
11:00+6с236897 0.0 1027620
14:00+9ссз335399 0.0 10261114
17:00+9с335199 0.0 10251169
20:00+7св345698 0.0 1026191
3 марта, ср
ср323:00+5в356390 0.0 1026160
02:00+4юв346585 0.0 1026106
05:00+4юв336892 0.0 102560
08:00+4юв3567100 0.0 1025140
11:00+7ююв555480 0.0 1024575
14:00+10ююз454935 0.0 10221228
17:00+11ююз345264 0.0 10191229
20:00+9вюв225733 0.0 101826
4 марта, чт
чт423:00+8вюв465717 0.0 1018119
02:00+7юв595914 0.0 1016192
05:00+7ююв485954 0.0 1015152
08:00+6ююз466384 0.0 1016105
11:00+11зсз695543 0.0 1017863
14:00+12сз894367 0.0 10191506
17:00+12зсз893182 0.0 10211976
20:00+9сз7936100 0.0 1024939
5 марта, пт
пт523:00+5ссз474161 0.0 1027363
02:00+3ссз34520 0.0 1028108
05:00+1всв33620 0.0 102964
08:00+1в47690 0.0 1029205
11:00+5вюв67490 0.0 1029828
14:00+9вюв55290 0.0 10251235
17:00+10в562335 0.0 10231206
20:00+8св6930100 0.0 1022555